FLYING LAPTOP

Satellite information

Favourite Embed

Satellite Type and Status

PAYLOADIN ORBIT

Key statistics

Satellite FLYING LAPTOP at a glance.

Uptime

3074

Days in orbit

Revolutions

≈ 15.0

Per day

Orbit

SSO

Sun Synchronous Orbit

Inclination

97.4

Latest

Satellite identification and parameters

Extended collection of information and parameters for FLYING LAPTOP.

Object identification

Identified? True

Debris? False

Object name: FLYING LAPTOP

International designator: 2017-042G

Object number (NORAD): 42831

Object ID (CCSDS): 42831

Country: GERMANY (GER)

Current information (Y/N): Y

RCS size: MEDIUM

Orbital parameters

Period: 96.006 minutes

Inclination: 97.4234 deg

SMA: 6945.321 km

Apoapsis: 577.636 km

Periapsis: 556.736 km

RAAN: 144.9735 deg

Eccentricy: 0.00150456

Argument of periapsis: 50.4366 deg

Mean anomaly: 309.8185 deg

Mean motion: 14.99906826 rev/day

Mean motion (dot): 0.00006134 rev/day2

B* drag term: 0.00049771248 1/REarth

Two-line elements (TLE)

Creation date: Dec. 12, 2025, 10:14 a.m.

Reference frame: TEME

Reference center: EARTH

Epoch: Dec. 12, 2025, 8:02 a.m. UTC

TLE line 0: 0 FLYING LAPTOP

TLE line 1: 1 42831U 17042G 25346.33506593 .00006134 00000-0 49771-3 0 9991

TLE line 2: 2 42831 97.4234 144.9735 0015046 50.4366 309.8185 14.99906826458434

Live tracking on map

Real-time ground track for satellite FLYING LAPTOP.

In-orbit conjunctions

There are no conjunctions computed for FLYING LAPTOP, at the moment. Check back to stay up to date, as we update our databases every day.

Go to all conjunctions

Associated space launch

Kanopus-V-IK is a small Russian remote sensing satellite for monitoring wildfires. Weighing about 473 kg, it is intended for 5 years of operation in a 510 km sun-synchronous orbit.

FLYING LAPTOP was lifted into orbit during the mission ‘Soyuz-2.1a/Fregat | Kanopus-V-IK’, on board a Soyuz 2.1a/Fregat-M space rocket.

The launch took place on July 14, 2017, 6:36 a.m. from 31/6.

For more information about the launch, click the button.

Launch to space Soyuz-2.1a/Fregat | Kanopus-V-IK
Soyuz-2.1a/Fregat | Kanopus-V-IK

Agency: N/A

Status: Launch was a Partial Failure

Launch date: July 14, 2017, 6:36 a.m. UTC

Rocket: Soyuz 2.1a/Fregat-M

Launch pad: 31/6

Location: Baikonur Cosmodrome, Republic of Kazakhstan

...

Latest news about this satellite

There are no fresh news available about this satellite. Check back as we update our databases every day.


Newsletter sign-up

Weekly statistics, charts and insights to help you stay on top of the space industry.